Flag for Canada Weather past 2 weeks in Saskatoon, Saskatchewan, Canada

Now
37 °F

Low clouds.


Feels Like: 30 °F
Forecast: 37 / 48 °F
Wind: 12 mph from West

Location: Saskatoon Weather Station


UV Index: 0 (Low)

Visibility: 15 mi


Pressure: 29.64 "Hg

Humidity: 93%

Dew point: 36 °F

Location of SaskatoonLocation

Historic Weather in Saskatoon

°F

Saskatoon temperature yesterday

Maximum temperature yesterday: 48 °F (at 12:00 AM)
Minimum temperature yesterday: 39 °F (at 11:00 PM)
Average temperature yesterday: 44 °F

Past Weeks' High & Low Weather Summary

 TemperatureHumidityPressure
High66 °F (Apr 22, 3:00 PM)100% (Apr 11, 5:00 AM)30.50 "Hg (Apr 11, 5:00 AM)
Low10 °F (Apr 14, 6:00 AM)26% (Apr 9, 2:00 PM)29.56 "Hg (Apr 23, 6:00 PM)
Average34 °F75%30.00 "Hg
* Reported Apr 9 10:00 AM — Apr 24 10:00 AM, Saskatoon, Weather by CustomWeather, © 2014

Note: Actual official high and low records may vary slightly from our data, if they occured in-between our weather recording intervals... More about our weather records

Advertising

Historic Weather Conditions — Data for Previous 24 hours

 ConditionsComfort  
Time TempWeatherWind HumidityBarometerVisibility
10:00 AM
Apr 24
37 °FLow clouds.12 mph93%29.64 "Hg15 mi
9:00 AM39 °FLow clouds.12 mph93%29.63 "Hg15 mi
8:00 AM39 °FOvercast.10 mph93%29.63 "Hg15 mi
7:00 AM39 °FLow clouds.10 mph93%29.62 "Hg15 mi
6:00 AM39 °FLow clouds.10 mph93%29.61 "Hg15 mi
5:00 AM37 °FMostly cloudy.8 mph100%29.60 "Hg12 mi
4:00 AM37 °FLight rain. Low clouds.7 mph100%29.59 "Hg10 mi
3:00 AM39 °FLight rain. Low clouds.10 mph93%29.58 "Hg10 mi
2:00 AM39 °FLight rain. Low clouds.15 mph93%29.58 "Hg12 mi
1:00 AM39 °FLight rain. Low clouds.21 mph93%29.58 "Hg15 mi
12:00 AM39 °FLight rain. Low clouds.17 mph93%29.58 "Hg15 mi
11:00 PM
Apr 23
39 °FLight rain. Low clouds.21 mph93%29.58 "Hg8 mi
10:00 PM41 °FLight rain. Low clouds.20 mph93%29.59 "Hg8 mi
9:00 PM41 °FLight rain. Mostly cloudy.23 mph93%29.57 "Hg8 mi
8:00 PM43 °FLight rain. Fog.20 mph93%29.57 "Hg5 mi
7:00 PM43 °FLight rain. Fog.23 mph93%29.56 "Hg4 mi
6:51 PM43 °FLight rain. Fog.23 mph93%29.56 "Hg6 mi
6:00 PM43 °FLight rain. Mostly cloudy.25 mph93%29.56 "Hg8 mi
5:00 PM43 °FLight rain. Fog.24 mph93%29.56 "Hg4 mi
4:00 PM43 °FRain. Fog.22 mph93%29.57 "Hg2 mi
3:00 PM45 °FRain. Fog.31 mph87%29.57 "Hg2 mi
2:45 PM45 °FRain. Fog.22 mph93%29.57 "Hg2 mi
2:00 PM45 °FRain. Fog.17 mph93%29.57 "Hg3 mi
1:00 PM45 °FRain. Fog.24 mph87%29.57 "Hg3 mi
12:00 PM43 °FLight rain. Fog.23 mph93%29.57 "Hg3 mi
11:00 AM43 °FRain. Fog.22 mph87%29.58 "Hg3 mi
Weather by CustomWeather, © 2014

See weather overview